Wind_Speed
20 20 19 19 19 19 19 19 18 17 17 16 16 16 16 16 16 16 16 16 15 14 13 12 12 12 12 12 12 12 12 11 11 10 8 6 6 8 10 11 10 8 7 5 5 6 6 5 3 3 4 5 5 4 3 2 5 9 12 15 17 18 17 16 15 14 12 11 11 10 10 10 10 10 10 10 11 12 12 12 12 12 12 11 11
21 20 20 20 19 19 19 18 18 18 17 17 17 16 16 17 17 17 16 16 15 14 13 12 12 12 13 13 12 12 12 11 11 10 8 6 6 9 10 12 10 9 7 5 6 6 6 5 4 3 5 6 6 5 4 3 5 9 12 15 17 18 17 16 15 14 13 12 11 11 11 11 10 10 10 10 11 12 12 12 12 11 11 11 10
22 21 20 20 19 19 19 18 18 18 17 17 17 17 17 17 17 17 16 16 15 13 12 12 12 13 13 13 12 12 11 11 11 10 8 7 8 8 10 11 11 9 8 7 7 6 5 5 4 3 5 6 7 6 4 3 5 9 12 15 17 18 18 17 16 14 13 12 12 12 12 11 11 10 10 10 11 12 12 12 11 11 11 11 10
23 22 22 21 20 19 19 19 19 18 17 17 17 17 17 17 17 17 17 15 14 13 12 12 12 13 13 13 13 12 12 11 10 10 9 8 8 8 8 10 11 10 9 8 7 6 5 6 5 4 6 7 7 7 5 4 5 9 12 15 17 18 18 17 16 15 13 12 12 12 12 12 11 11 11 11 11 12 12 12 11 11 11 10 10
24 23 23 22 21 20 20 19 19 19 18 17 17 17 17 17 17 17 16 15 14 13 12 12 13 13 14 14 13 12 12 11 10 10 10 9 8 7 7 9 10 11 10 9 7 6 6 6 5 4 6 8 8 8 6 5 5 9 12 15 17 18 18 17 16 15 14 13 12 12 12 12 12 12 12 11 12 12 12 12 11 11 10 10 9
25 25 25 24 22 21 20 20 19 19 19 18 17 17 17 18 18 17 16 15 14 13 13 13 13 14 14 14 14 13 12 11 10 9 9 9 8 8 8 8 10 11 12 11 8 7 7 7 5 5 7 9 9 9 7 6 6 9 12 15 17 18 18 17 16 15 14 13 13 13 13 13 13 12 12 12 12 12 12 12 12 11 11 10 9
26 27 27 25 23 22 21 21 20 20 20 19 17 17 18 18 18 17 16 15 14 13 13 13 14 14 14 14 14 13 12 10 8 8 9 10 9 9 9 9 10 12 13 12 11 9 8 8 6 5 7 9 10 10 8 6 6 9 13 15 17 18 18 17 16 15 14 13 13 13 13 13 13 12 12 12 12 12 13 12 12 11 11 10 9
28 28 28 26 24 22 22 22 22 21 20 19 18 17 18 18 18 17 16 15 14 14 14 14 14 15 15 15 14 13 11 9 7 6 7 10 10 10 10 10 10 12 13 13 13 11 10 9 7 6 8 10 11 11 9 8 7 9 12 15 17 18 18 17 17 16 15 14 13 13 14 14 13 12 12 12 12 13 13 12 12 11 11 10 9
29 29 28 27 25 23 22 22 22 21 21 20 19 18 18 18 17 17 16 15 14 14 14 15 15 16 16 15 14 12 10 9 7 6 6 8 11 11 11 11 12 12 13 15 15 13 12 10 8 7 8 10 12 12 11 9 8 9 12 15 17 18 18 18 17 16 15 15 14 14 14 14 14 13 13 13 13 13 13 13 12 12 11 11 10
30 29 29 28 26 25 23 22 22 22 21 21 20 19 18 17 17 17 16 15 15 15 15 16 16 16 16 15 14 12 11 10 8 7 6 7 10 12 12 12 13 13 14 15 15 15 13 12 9 8 9 11 13 14 12 10 9 9 11 14 16 18 19 19 18 16 16 15 15 15 15 15 14 14 13 13 13 13 13 13 13 12 12 11 10
30 30 29 28 26 25 24 23 23 22 22 22 21 19 18 17 17 17 16 16 16 16 16 17 17 17 16 15 14 13 12 11 9 8 7 7 8 11 13 13 13 14 14 15 16 15 15 14 11 9 9 11 14 15 13 12 10 10 11 13 16 18 19 19 18 17 16 15 15 16 17 16 15 14 14 14 14 14 14 14 14 13 13 12 10
31 30 28 27 26 25 25 24 24 23 22 22 21 20 18 17 18 17 16 16 17 17 17 17 17 16 15 15 14 14 13 11 10 9 8 8 8 9 12 14 15 15 15 16 17 16 16 16 13 10 10 12 14 16 15 13 12 10 11 13 16 18 20 20 19 17 17 17 15 16 17 17 16 15 15 14 14 14 14 15 15 14 13 12 11
30 29 27 26 25 25 25 25 24 23 22 22 22 20 19 18 18 18 17 17 18 17 17 17 17 16 16 16 15 14 13 12 11 11 11 11 11 11 12 14 16 17 16 17 18 18 17 17 15 12 11 12 14 16 17 15 13 11 11 13 15 18 20 20 19 18 18 18 17 16 17 17 17 16 15 15 14 14 14 15 15 15 14 13 12
29 27 26 25 25 26 26 26 25 24 23 22 22 21 19 19 18 18 18 18 18 18 17 17 17 16 17 16 15 15 14 13 12 12 12 13 14 14 13 14 17 18 17 17 18 18 18 18 17 14 12 13 14 16 18 16 14 12 12 13 16 18 20 20 20 20 20 20 19 18 17 18 18 17 16 16 15 15 14 14 15 15 14 14 13
28 26 25 25 26 26 26 26 26 25 24 23 23 21 20 19 18 18 19 19 18 18 17 17 17 17 17 16 16 15 15 14 13 13 14 14 14 14 14 15 17 18 18 17 18 19 19 19 18 16 14 13 15 17 18 18 16 14 13 14 16 18 20 21 21 21 21 21 21 20 19 19 19 18 17 17 16 16 15 15 14 14 14 13 13
27 26 26 26 26 26 26 26 26 25 25 24 24 22 21 20 19 19 19 19 19 18 17 17 17 17 17 16 16 16 15 15 15 15 15 15 15 13 13 14 17 18 18 17 17 19 19 19 18 17 16 15 15 18 19 19 18 16 14 14 16 18 20 21 21 21 20 21 21 21 20 20 20 20 18 17 16 15 14 14 13 13 13 13 12
26 26 25 25 26 26 26 26 26 26 25 25 23 21 21 20 19 20 20 19 19 18 18 17 17 17 17 17 17 16 16 15 15 16 17 17 15 13 12 13 16 18 18 17 17 18 19 19 19 19 18 16 16 18 20 21 20 18 16 15 16 18 20 21 22 22 21 20 21 21 21 20 21 20 19 17 16 15 14 13 13 12 12 12 12
25 25 24 24 25 25 25 25 26 26 25 24 24 22 20 20 19 20 20 19 19 18 17 17 17 17 17 17 17 17 16 16 16 17 18 18 15 13 11 12 15 17 17 16 16 17 19 19 19 19 19 18 18 19 20 21 21 20 17 16 16 17 18 20 22 22 22 21 21 22 22 21 21 21 19 18 17 15 14 14 13 12 12 12 11
24 24 24 24 24 24 24 24 25 26 25 24 25 24 21 20 20 20 19 19 19 17 17 17 17 17 17 17 17 17 17 17 17 18 18 18 16 13 11 11 14 15 16 16 16 17 19 20 19 20 20 19 19 19 21 22 23 22 19 17 16 17 17 19 21 22 23 22 22 22 22 22 21 21 21 19 18 16 15 14 13 13 12 12 11
24 24 24 24 23 23 23 23 24 25 25 24 25 24 21 21 20 19 19 19 19 17 17 17 17 18 18 17 17 17 17 17 18 18 17 17 16 13 11 11 13 14 15 16 16 17 18 19 20 20 21 21 21 20 21 23 24 23 21 18 17 17 17 18 21 23 23 23 23 22 22 22 22 22 21 20 19 18 16 15 13 13 12 12 11
23 23 23 23 23 23 23 23 24 24 24 24 24 23 22 21 20 19 19 19 19 18 17 17 17 17 18 17 17 17 17 17 17 17 16 17 16 14 12 12 12 13 14 15 16 17 18 19 19 21 22 23 22 21 22 24 25 25 23 20 18 17 17 18 21 23 24 24 24 23 23 22 22 22 21 21 20 19 17 16 14 13 12 12 11
22 22 23 23 23 23 24 24 24 23 22 23 23 22 21 21 20 20 19 19 19 18 18 17 17 17 17 17 16 17 16 15 16 16 16 16 15 14 13 13 14 13 14 15 15 16 18 20 20 21 22 24 23 22 22 24 26 26 24 21 19 18 18 18 20 23 24 25 25 24 24 23 22 22 21 21 21 20 18 17 16 14 13 12 12
22 22 22 22 22 24 26 26 25 23 22 22 22 22 21 21 21 20 20 20 19 19 18 17 17 16 16 16 15 15 15 15 16 15 16 15 15 14 13 14 15 16 15 15 15 16 18 20 21 21 21 23 24 23 23 24 26 27 26 23 21 20 18 18 19 22 24 25 25 25 25 24 23 22 22 21 21 20 19 18 17 16 14 13 13
22 22 22 22 23 25 26 27 27 25 23 21 21 22 21 21 21 21 20 21 20 19 19 18 17 16 16 16 15 15 15 15 16 15 16 16 14 14 13 14 16 17 18 17 16 16 18 21 22 21 21 22 24 24 24 24 27 28 28 26 23 21 19 18 19 22 24 25 26 26 26 25 24 23 23 22 22 21 20 19 18 17 16 15 14
23 23 23 23 23 25 26 27 28 26 23 22 21 22 22 22 22 21 21 21 20 20 19 18 17 16 16 16 15 15 15 15 15 15 16 15 14 13 14 15 17 18 19 18 17 17 18 21 23 23 22 22 24 26 26 25 27 29 30 27 24 22 20 19 19 20 23 25 26 26 27 26 26 25 24 23 22 22 21 20 19 18 18 17 17
24 23 23 23 23 24 25 26 27 26 24 22 22 22 23 23 22 22 22 22 21 20 19 19 17 16 16 16 16 15 15 15 15 14 14 14 14 14 14 16 17 18 19 19 19 19 19 20 24 25 24 23 25 28 28 26 27 30 31 29 26 23 21 20 19 19 22 24 25 26 26 27 27 26 25 24 23 23 22 21 20 19 19 19 19
24 24 24 23 22 23 25 25 26 25 23 22 22 23 23 23 23 22 22 22 22 21 20 19 18 17 17 16 16 16 15 15 15 15 14 15 15 15 15 15 16 18 19 20 20 20 20 20 23 26 26 25 26 28 30 28 28 31 32 31 28 25 23 21 20 19 21 23 24 25 26 27 27 27 26 25 25 24 23 23 21 20 20 20 20
25 25 25 24 22 22 24 24 24 23 22 22 23 24 24 24 23 22 22 23 22 21 20 19 18 18 17 17 18 17 17 16 16 16 16 17 17 16 15 15 16 17 18 20 21 21 20 20 21 25 27 26 25 25 28 28 27 31 33 32 30 27 24 22 21 20 20 22 23 25 26 27 27 27 27 26 26 25 25 24 23 22 21 20 20
26 26 26 24 22 22 23 23 22 21 22 22 24 25 24 24 23 23 23 23 22 21 20 19 19 18 19 20 19 18 18 18 18 19 19 19 18 17 16 16 16 17 18 19 21 21 21 20 21 24 26 26 24 24 24 24 26 31 34 33 32 29 26 23 22 20 20 21 22 24 25 26 27 27 27 27 27 27 26 26 25 24 23 22 21
27 27 26 25 22 22 22 22 20 20 21 22 24 25 25 24 23 23 23 23 22 21 20 20 20 20 20 21 20 20 20 21 20 21 21 20 19 19 18 17 17 17 17 18 19 20 20 21 21 23 25 25 24 25 24 23 25 31 34 35 33 30 28 26 23 22 21 21 22 23 24 26 26 27 27 27 27 27 27 26 26 25 24 23 22
27 26 26 24 21 21 21 20 19 19 20 21 23 24 25 24 24 24 24 23 22 22 22 21 21 21 21 22 22 22 23 23 22 22 22 21 20 20 19 18 18 17 17 18 17 17 18 20 22 23 25 25 25 26 27 25 25 30 34 35 34 33 30 28 26 24 22 22 22 23 24 25 26 26 26 26 27 27 27 26 26 26 25 24 24
24 23 22 21 21 20 20 19 18 18 18 20 21 23 24 24 24 24 24 23 23 23 22 22 22 22 22 23 24 23 25 25 24 24 23 22 21 20 19 19 18 17 17 18 17 17 17 19 21 22 24 24 25 27 28 27 27 29 34 36 36 35 33 31 29 27 25 23 23 23 24 25 25 25 25 26 26 27 27 26 25 25 25 25 24
22 21 21 21 21 21 21 20 20 19 19 20 21 22 23 24 25 25 24 24 23 23 23 22 22 23 23 24 25 25 27 27 26 25 24 23 22 21 20 19 18 18 17 17 18 18 18 18 19 21 22 22 24 26 27 28 29 30 33 36 38 37 35 33 31 29 28 26 24 23 23 24 24 24 25 26 26 27 27 26 25 24 24 24 25
21 21 23 23 23 23 22 21 21 21 21 21 22 23 24 25 25 25 25 24 24 24 23 23 23 24 24 25 26 27 28 27 26 25 24 24 23 23 22 21 20 20 19 18 18 18 18 18 19 20 21 21 22 24 25 26 29 32 34 35 38 39 36 35 33 31 29 28 26 25 24 24 24 24 25 26 27 27 27 26 25 25 24 24 24
23 23 24 25 25 25 24 23 22 22 23 22 23 23 24 25 26 26 25 25 24 24 24 24 24 25 24 25 26 27 28 26 26 26 24 23 23 23 22 21 21 21 20 19 19 19 19 20 20 20 21 21 22 23 25 26 28 33 35 35 37 40 38 36 35 33 32 30 29 27 25 25 24 25 25 26 27 27 27 27 26 25 25 24 24
25 25 25 26 26 25 25 24 24 23 23 23 24 24 25 25 26 26 25 25 25 25 25 24 25 25 25 25 26 27 28 27 27 26 25 24 23 23 22 21 21 21 21 21 20 21 21 20 20 20 20 21 22 22 25 26 27 30 34 36 37 39 39 38 36 36 35 33 31 29 27 27 26 25 25 25 26 27 27 27 26 26 25 25 25
27 27 26 27 27 26 24 24 24 24 24 23 24 24 25 25 26 26 26 26 26 26 26 26 26 26 26 26 27 28 28 28 27 25 25 24 24 23 22 22 22 22 21 22 22 22 21 20 21 21 20 20 21 21 23 25 26 28 30 34 37 38 39 39 39 38 37 35 33 32 30 29 28 27 26 26 26 26 27 26 26 25 25 24 23
29 28 28 28 28 26 24 24 24 24 25 25 24 24 25 26 26 27 27 27 27 27 27 27 28 28 27 27 27 28 29 28 27 26 25 24 24 24 23 24 24 23 22 22 23 23 21 21 22 22 21 21 20 20 22 24 25 27 28 31 34 36 38 39 40 40 38 37 35 34 32 31 30 29 28 27 27 26 26 26 25 25 24 23 22
29 29 29 29 29 27 25 23 23 24 26 27 27 26 26 27 27 28 28 28 29 29 29 30 30 30 29 28 28 29 29 29 28 27 26 25 25 25 24 25 25 24 23 23 24 24 23 22 23 23 22 21 21 20 20 22 24 27 28 30 31 33 35 36 38 40 39 38 37 35 35 34 33 31 30 29 29 28 26 25 25 25 24 23 23
29 30 30 31 30 28 26 24 23 23 25 27 28 29 29 29 29 30 30 30 30 31 31 31 31 31 31 30 29 29 29 29 29 28 27 26 25 25 25 25 25 25 24 24 24 25 24 23 24 25 23 23 22 21 20 21 23 26 27 29 31 33 34 35 36 37 39 40 39 38 38 37 36 34 33 32 31 29 27 26 26 25 25 24 24
29 31 31 32 31 28 27 25 24 24 23 24 26 28 29 29 30 31 31 32 32 32 32 32 32 31 31 30 30 29 29 30 30 29 28 27 26 26 26 25 25 25 24 24 25 26 26 25 24 25 25 24 24 23 22 21 23 25 27 28 31 34 35 36 37 37 38 40 40 40 41 40 38 37 36 35 33 31 29 28 27 27 26 25 24
29 31 32 33 32 29 28 26 25 25 24 23 24 25 26 27 29 30 30 31 32 32 32 32 31 31 31 30 30 30 30 30 30 29 29 28 26 26 25 25 24 24 24 24 24 25 26 26 26 26 26 26 26 25 24 24 23 24 26 27 30 34 35 35 38 39 39 39 40 41 42 42 41 40 39 37 34 33 32 30 29 28 27 26 25
28 29 31 33 32 30 29 27 25 25 24 24 25 25 25 26 27 28 28 29 30 30 30 30 30 30 30 30 30 30 30 30 29 29 29 28 26 25 25 24 24 24 24 24 24 25 26 26 26 27 28 28 27 26 26 26 25 23 24 24 25 30 34 35 37 40 41 40 41 42 43 43 43 43 41 40 38 36 34 33 32 31 30 29 28
26 28 30 32 32 30 29 27 25 24 25 25 25 25 25 25 26 26 26 27 27 28 28 28 29 29 29 29 29 29 29 29 28 28 28 27 27 25 25 24 23 23 24 24 25 25 26 26 26 27 29 30 30 28 27 27 26 23 22 22 20 22 28 34 38 40 42 42 42 43 44 44 44 44 44 43 41 39 37 35 35 34 33 32 31
26 27 30 32 32 30 29 27 24 24 25 24 24 24 24 24 24 25 25 25 26 26 27 27 27 27 28 28 27 28 28 28 28 27 27 27 27 26 25 24 23 23 24 24 25 25 26 27 26 26 27 29 30 30 30 28 26 24 22 21 19 18 21 27 32 35 39 44 45 43 44 46 46 46 46 45 43 41 40 39 38 36 35 35 35
27 28 31 33 32 31 29 26 24 24 24 23 23 23 24 23 23 23 24 24 24 25 25 25 25 25 25 26 26 26 27 27 27 26 26 26 26 26 25 24 23 23 23 24 25 25 26 26 26 25 26 28 30 31 32 31 29 27 25 23 22 20 19 20 25 28 31 38 41 41 44 46 47 47 47 46 45 44 42 41 40 38 38 37 37
28 29 31 33 33 32 30 27 24 23 23 22 22 22 23 23 22 23 23 23 23 23 23 23 23 23 23 23 24 24 25 26 26 26 25 25 26 25 24 23 23 23 23 23 24 24 25 25 25 25 26 28 30 31 33 33 32 29 28 27 24 22 20 19 22 25 27 30 31 36 42 44 44 46 47 46 46 45 44 42 42 41 40 40 39
30 30 33 35 34 32 30 27 25 24 22 22 21 21 21 22 22 22 22 22 22 22 22 22 22 22 22 22 22 22 23 24 24 24 24 24 25 25 24 23 22 22 22 22 23 23 24 25 25 24 25 26 28 30 31 32 32 31 30 29 27 26 24 22 21 22 24 27 28 32 37 38 38 41 44 46 46 45 44 44 43 43 42 42 41
31 32 34 36 35 32 29 26 25 24 22 21 21 20 20 20 21 21 21 21 21 21 21 21 21 21 21 21 21 21 21 22 22 23 23 23 23 23 23 22 22 22 22 22 22 23 23 24 24 24 24 25 27 28 29 29 30 31 31 30 30 30 29 27 25 22 21 24 27 30 33 34 36 38 39 42 43 42 44 45 44 44 43 43 44
32 33 35 36 34 30 26 23 23 22 21 21 21 20 20 20 19 19 20 20 20 20 20 21 21 21 21 21 21 21 21 21 21 21 22 22 22 22 21 21 21 21 21 22 22 22 22 22 23 23 23 24 26 26 27 27 28 29 30 30 31 31 31 29 28 27 24 23 24 26 28 31 35 39 39 39 39 39 41 43 44 45 44 44 46
32 33 33 32 29 25 22 21 21 21 21 22 21 20 20 19 19 19 19 19 19 19 20 20 20 20 20 20 20 21 21 20 20 20 21 21 21 21 20 20 19 20 20 21 21 22 21 22 22 22 23 23 24 25 25 26 26 27 28 29 29 30 31 30 29 29 28 26 25 24 26 27 30 36 38 37 37 39 39 40 41 42 43 44 45
Wind_Direction
255 256 259 261 263 265 266 268 270 274 277 281 285 287 291 294 295 297 298 298 300 301 302 303 305 306 305 303 301 300 297 294 290 286 278 257 229 217 219 219 215 214 214 221 232 236 250 271 279 227 213 216 214 207 207 220 216 199 190 193 192 189 188 185 184 184 181 172 161 149 142 138 132 129 128 129 130 128 126 123 120 114 111 109 105
255 256 258 260 261 261 263 265 267 271 275 279 282 284 288 290 293 295 296 297 298 300 300 301 302 301 301 299 298 297 293 289 285 280 270 253 229 213 214 216 215 211 212 222 228 232 246 269 282 232 212 214 215 209 205 213 215 204 193 193 194 191 189 187 186 186 184 175 163 152 146 142 137 134 133 135 135 132 129 127 124 119 116 114 111
255 256 258 259 261 262 263 265 267 269 273 277 279 282 285 288 291 292 294 296 297 297 297 298 298 298 298 298 296 294 290 285 278 272 261 244 228 214 209 213 216 211 212 223 220 225 242 265 278 238 214 212 215 213 208 210 212 206 196 193 195 194 190 189 189 188 186 178 168 157 152 148 143 141 139 140 140 136 133 131 128 124 121 119 117
255 256 258 259 262 263 264 266 268 269 271 274 277 281 284 287 289 290 293 295 296 295 294 294 295 295 296 296 294 291 286 279 272 265 255 240 227 217 211 212 217 216 215 222 217 219 238 258 274 243 215 211 214 214 213 214 211 207 200 195 196 195 192 191 190 190 188 180 172 162 157 154 149 146 145 145 145 141 137 135 133 128 125 124 122
255 257 259 260 262 265 265 266 268 270 271 272 275 279 283 285 287 289 291 293 292 291 291 291 291 292 292 293 290 286 280 273 267 258 247 234 222 217 215 212 216 221 221 223 222 225 235 251 269 248 218 211 214 215 217 219 212 207 202 198 197 195 194 192 191 192 189 183 174 166 161 158 154 151 150 150 149 145 142 140 137 132 129 128 126
256 259 261 262 264 266 266 266 268 270 272 273 275 279 282 283 285 288 290 290 289 287 286 286 287 287 288 287 285 281 275 271 265 254 241 229 219 218 220 216 216 221 224 223 226 231 235 248 262 249 222 211 213 215 218 222 217 210 204 200 197 196 195 193 192 193 190 186 178 169 165 161 158 155 154 154 152 149 146 144 140 136 134 132 130
258 260 263 264 265 267 267 265 267 270 273 274 275 278 280 281 283 287 290 288 286 284 282 282 283 283 283 281 279 276 272 270 265 252 239 228 219 219 224 225 221 222 224 224 227 231 236 247 258 248 225 212 212 214 217 222 224 214 206 200 197 197 197 194 193 193 191 188 181 171 167 164 161 158 156 156 155 152 149 147 143 139 137 136 135
259 262 265 267 269 270 268 265 266 269 272 273 273 275 277 280 284 288 289 286 282 281 279 279 279 279 278 276 275 272 268 263 259 252 241 229 221 219 225 229 228 226 227 226 227 230 235 246 258 249 227 213 210 214 216 221 227 217 207 201 198 198 198 196 195 194 191 189 183 173 168 167 163 160 158 157 156 154 151 149 146 143 140 139 139
260 264 266 269 272 272 269 266 267 269 272 272 271 272 274 279 284 288 288 284 280 277 276 275 275 275 274 273 273 268 261 253 249 247 243 231 222 222 226 230 232 231 229 228 228 229 233 243 256 251 231 214 209 213 215 218 227 219 209 203 200 200 199 198 196 194 193 191 184 174 170 169 165 161 160 159 158 156 154 152 150 147 144 142 143
261 264 267 270 272 272 269 267 268 270 271 271 271 271 273 278 283 286 284 280 277 275 272 271 271 271 271 271 268 260 251 245 243 243 244 236 227 225 228 231 234 234 232 230 228 230 233 240 251 249 233 217 208 211 213 216 225 221 210 205 202 202 201 200 198 195 195 195 188 177 172 170 168 164 161 160 160 159 157 156 154 152 148 146 146
262 265 269 272 272 271 270 269 270 272 272 271 270 270 272 278 281 280 279 278 275 273 270 269 268 269 268 266 261 251 243 241 240 238 240 239 233 231 233 234 236 238 236 232 228 231 234 238 246 245 235 222 210 209 211 214 222 221 210 206 205 205 204 202 199 196 195 197 193 184 176 171 170 165 162 162 162 162 161 160 158 156 153 151 150
263 267 270 271 271 271 272 271 272 272 272 271 270 270 272 277 278 275 276 275 273 270 268 267 266 266 264 260 254 244 239 241 240 237 237 242 245 244 241 238 238 239 237 232 227 228 232 236 241 244 238 227 213 208 209 211 217 220 212 207 206 207 207 205 201 197 196 197 196 191 181 173 172 169 164 164 164 165 164 163 162 160 157 155 154
265 268 269 270 271 272 273 273 273 273 272 272 273 273 274 277 276 273 273 272 270 268 265 265 265 264 261 255 248 240 238 242 243 240 242 249 254 257 252 242 237 238 238 233 226 224 229 233 237 242 238 230 219 210 209 210 213 218 213 207 207 208 209 208 205 201 198 197 197 195 186 178 175 172 168 166 166 168 168 167 165 163 161 159 157
267 268 268 270 272 274 275 275 275 275 274 273 274 275 275 276 273 270 270 270 268 266 264 264 264 261 257 252 245 239 239 242 244 244 247 254 259 262 259 247 237 236 238 235 226 222 225 230 233 238 237 231 224 214 209 209 211 215 213 207 207 209 209 209 209 206 201 199 198 196 190 184 179 176 173 171 170 170 171 170 169 166 163 162 159
269 269 270 273 274 275 276 277 277 278 276 274 274 274 276 273 270 269 271 269 267 264 264 264 262 259 254 249 244 240 240 245 249 250 253 259 264 266 261 250 237 233 235 235 227 220 223 228 230 235 236 232 226 218 211 209 210 213 213 208 206 209 210 209 210 211 207 202 200 198 193 189 184 180 179 177 175 174 175 174 171 169 166 165 162
270 272 274 275 275 275 276 277 278 278 276 274 274 272 273 272 270 271 269 267 266 265 264 263 261 258 253 247 243 242 242 247 255 259 261 262 265 267 259 246 233 229 231 234 230 221 220 226 229 232 235 232 226 221 215 209 209 212 213 210 206 208 211 209 209 213 213 208 204 202 197 193 189 185 184 181 180 178 176 175 173 171 167 166 164
272 275 276 275 274 274 275 276 276 276 274 274 274 270 271 272 270 268 266 265 267 268 267 265 262 258 253 248 246 245 246 250 256 262 265 265 266 265 255 238 225 224 228 233 233 225 220 224 229 232 234 231 227 225 220 211 208 212 213 211 208 208 212 211 209 210 213 212 209 206 202 198 194 190 188 186 184 181 178 175 174 174 169 166 165
274 276 276 276 275 275 275 275 274 274 273 272 273 271 272 272 268 266 265 265 265 266 267 265 261 255 251 250 249 248 250 254 258 264 267 268 267 262 249 231 219 220 226 231 236 233 225 224 228 233 235 232 229 227 222 215 209 211 214 212 210 209 212 214 212 210 211 212 212 210 206 202 199 195 192 192 189 185 183 180 177 178 175 169 166
273 275 275 275 276 276 276 275 272 271 271 271 271 272 272 269 265 264 264 264 261 260 260 259 257 254 253 253 252 251 253 256 259 263 265 265 263 255 242 227 218 220 226 231 234 237 233 227 227 232 235 232 230 227 223 217 211 210 214 214 212 211 212 215 214 212 211 211 213 214 212 207 203 201 197 196 194 191 190 186 182 183 181 176 171
272 273 274 274 275 276 277 275 273 271 270 269 270 271 271 267 264 263 262 262 261 259 256 254 255 255 255 255 254 255 257 258 261 262 260 260 259 251 236 225 219 221 226 230 233 235 236 232 228 229 234 232 229 228 223 218 214 211 212 215 214 213 213 216 216 213 213 212 213 215 216 212 209 206 203 201 200 198 196 193 190 190 189 185 179
271 273 273 273 273 274 275 276 274 272 270 268 268 268 267 267 265 264 261 259 260 261 256 253 252 252 253 255 255 257 257 257 260 262 259 256 257 251 236 226 221 222 224 228 231 233 236 235 231 229 233 234 229 227 225 218 216 213 212 214 215 214 213 215 217 215 214 214 214 214 215 216 214 212 209 206 205 204 201 199 198 198 198 197 192
272 273 274 274 274 273 273 274 275 274 271 267 266 265 263 263 263 261 260 257 258 258 256 254 251 250 251 252 253 257 260 259 260 260 258 254 253 250 241 231 226 225 225 226 229 231 234 236 235 233 234 238 233 225 225 219 216 215 213 213 215 215 213 214 217 216 214 214 215 214 214 215 216 217 216 213 211 210 208 206 205 204 205 206 205
274 276 277 277 276 274 274 274 275 274 269 266 263 261 259 258 258 258 256 255 255 255 256 256 255 254 252 250 249 254 259 261 262 260 259 257 252 250 245 238 234 231 231 230 230 229 231 233 236 237 235 239 238 226 223 220 214 215 214 213 215 215 213 213 217 217 215 214 215 215 215 214 215 217 218 219 218 217 214 212 212 210 210 213 215
275 277 278 278 276 276 275 275 274 272 267 263 259 256 255 253 253 252 250 251 252 252 253 254 255 257 257 255 249 249 253 255 258 257 257 259 253 249 246 242 239 237 236 237 236 231 228 230 233 237 235 236 239 229 222 221 215 213 215 215 216 215 213 211 215 218 216 214 215 216 217 216 215 215 216 219 221 222 221 219 218 217 216 216 220
275 277 280 280 278 277 275 273 271 269 265 259 255 252 251 249 248 248 247 247 248 250 251 251 252 253 255 257 253 251 252 252 254 254 255 258 256 252 248 244 241 240 240 240 239 235 229 227 229 235 237 235 237 232 223 220 215 212 214 216 216 216 214 211 212 217 217 216 216 217 218 218 216 215 215 216 218 221 223 223 222 222 222 220 221
277 280 283 283 280 276 273 271 268 266 262 258 254 248 246 244 242 243 244 245 246 248 250 253 252 250 250 252 254 254 254 255 256 256 257 260 259 255 251 246 243 242 241 241 240 237 233 227 227 232 237 237 238 237 227 220 215 211 212 215 216 217 216 213 212 214 217 217 218 219 219 220 219 218 216 216 217 218 220 222 222 223 224 223 222
280 283 285 284 279 273 270 269 266 264 259 255 251 245 242 240 238 238 240 243 244 245 247 251 251 250 250 251 254 255 255 256 257 258 259 258 257 254 252 250 248 245 243 242 241 239 237 231 227 230 235 238 240 239 228 219 216 212 211 214 215 217 217 215 214 214 217 218 218 220 220 220 221 221 220 219 219 219 219 219 220 220 222 223 224
284 286 284 283 279 271 268 268 266 262 258 253 248 244 240 238 236 237 239 241 243 243 243 245 247 248 250 251 253 254 255 255 255 258 257 256 256 255 256 255 253 250 247 245 244 242 241 237 232 231 235 240 243 239 226 217 217 213 211 213 214 216 217 217 217 217 219 219 219 220 221 221 221 222 222 222 223 223 223 223 221 220 220 221 223
287 286 282 281 277 269 268 269 265 260 255 251 246 243 240 238 236 237 239 240 242 243 243 244 246 247 248 251 251 251 253 254 255 256 256 256 258 259 260 259 257 255 253 251 250 247 244 242 237 234 235 240 244 240 228 221 221 216 212 213 214 216 217 218 218 219 222 222 222 221 222 222 221 222 223 224 225 226 227 228 227 226 224 223 223
287 283 280 278 272 265 267 269 267 260 254 250 246 242 240 238 236 236 238 239 241 243 244 245 247 248 250 255 256 253 253 253 254 256 257 259 261 263 264 264 263 262 260 256 253 252 248 243 241 238 236 238 241 238 230 227 227 221 215 214 215 216 217 218 218 220 223 225 225 223 223 223 222 223 223 225 227 229 231 232 233 232 230 228 226
284 280 277 274 267 262 264 267 266 260 253 248 243 241 239 237 237 237 237 238 240 243 244 246 249 252 255 259 259 258 258 257 256 257 258 260 263 267 268 268 267 265 263 261 259 256 251 245 240 238 236 236 239 240 231 225 227 225 220 218 217 216 217 218 218 219 223 225 226 226 225 224 223 224 225 225 227 230 232 234 236 236 235 233 231
281 278 274 269 264 261 262 263 263 257 251 246 241 239 237 237 237 237 237 238 240 243 246 247 250 254 257 259 259 260 262 262 261 260 260 263 266 268 268 268 268 267 266 267 269 262 255 250 241 237 236 234 236 240 234 224 223 225 224 222 219 218 218 219 219 219 221 223 225 227 227 226 225 225 226 226 227 228 231 234 235 236 236 235 233
277 275 270 266 262 260 259 259 258 255 250 245 241 238 236 236 237 237 238 239 241 245 248 250 251 254 256 258 260 261 262 265 267 266 264 265 266 266 267 268 270 271 270 267 268 264 260 259 250 242 241 237 234 237 236 229 223 222 223 224 223 221 220 220 220 220 221 222 224 226 227 228 227 226 227 227 227 228 230 232 234 235 236 236 235
270 269 266 264 262 261 261 259 256 254 250 247 243 239 237 236 236 237 238 240 243 246 248 251 253 254 255 257 260 262 264 267 270 269 266 265 266 266 267 269 271 272 271 268 267 267 266 264 259 251 247 243 238 237 240 238 231 225 222 223 226 226 223 222 221 221 222 223 223 225 227 229 229 229 229 228 228 228 229 231 232 235 236 237 236
266 265 264 263 263 262 262 261 258 255 251 249 246 243 239 237 236 237 238 241 244 247 250 251 253 256 256 257 259 262 265 266 267 269 268 267 267 267 267 268 270 270 270 271 270 268 265 263 260 257 252 248 244 241 241 241 240 234 225 221 225 228 228 226 224 223 224 224 224 225 226 228 229 230 230 230 229 229 230 231 232 233 236 237 237
266 264 264 263 262 261 260 260 260 258 254 251 248 246 243 240 239 239 241 244 247 249 251 253 254 256 258 259 260 262 264 264 264 267 269 268 266 265 266 266 266 267 268 268 267 266 264 262 260 258 255 252 248 245 244 243 244 243 233 223 223 227 230 231 229 226 225 225 225 225 226 227 229 229 230 230 230 231 231 232 232 233 234 236 238
267 266 265 264 263 261 260 259 259 260 258 255 251 248 245 243 242 242 244 247 249 251 253 255 256 257 257 258 259 261 263 264 265 266 267 267 266 265 264 263 262 263 265 265 264 263 263 262 260 259 256 254 251 248 247 245 244 247 243 232 226 226 229 232 233 231 228 227 227 227 227 227 229 230 231 231 231 232 232 232 233 233 234 235 238
268 268 267 266 266 265 264 260 257 257 258 258 256 252 249 246 245 246 247 249 251 253 255 257 258 259 258 258 258 259 261 264 266 267 267 266 266 265 264 263 262 262 263 263 262 261 259 259 259 258 256 254 253 251 247 244 241 242 245 242 235 229 228 230 233 234 233 231 229 229 229 229 230 230 231 232 233 233 233 234 234 234 234 234 236
267 269 268 269 269 269 268 263 257 253 254 256 257 256 254 251 250 250 250 251 253 255 256 257 258 259 259 259 258 259 261 262 264 266 266 266 265 264 264 263 264 264 263 262 261 260 257 256 256 256 255 254 254 254 250 244 241 239 241 243 243 239 233 230 231 234 235 235 233 232 232 232 231 231 231 233 234 234 235 235 234 235 234 234 234
268 270 270 271 271 271 270 267 261 255 251 252 254 255 255 254 254 253 254 255 255 256 257 257 258 258 259 259 258 259 260 262 263 265 266 266 265 264 264 264 265 265 264 262 260 259 257 254 255 255 254 254 254 254 253 248 243 241 240 240 242 244 243 237 233 233 235 235 234 234 234 233 233 233 232 232 233 234 235 235 235 235 234 234 234
269 270 272 272 272 272 270 268 266 261 257 255 254 254 254 254 254 254 255 256 256 257 258 258 258 258 259 259 258 258 259 261 263 265 266 266 266 265 265 265 265 265 264 262 260 259 257 254 254 255 254 253 253 253 254 253 247 243 242 240 238 240 243 243 238 234 234 235 234 234 235 235 235 235 234 234 234 234 235 236 237 236 236 236 235
269 272 273 274 274 273 270 267 266 265 264 262 261 258 257 255 254 254 254 255 255 256 257 258 259 259 259 259 259 259 259 261 263 264 266 267 266 266 265 264 264 264 263 262 260 259 258 256 254 254 253 252 253 254 254 255 253 248 245 245 241 236 236 239 241 238 236 235 235 235 236 237 236 236 236 236 235 235 236 236 238 238 239 238 237
270 273 274 274 274 274 272 268 266 266 266 265 265 264 262 259 257 256 255 256 256 256 257 258 259 259 259 259 260 260 261 262 263 264 266 267 267 266 265 264 262 262 262 261 260 259 259 257 254 253 254 253 253 254 254 255 256 255 251 249 243 237 233 232 236 239 238 236 235 235 235 235 237 237 238 237 236 236 236 237 237 238 240 240 240
270 272 273 273 274 274 273 271 269 267 266 265 266 266 264 263 261 260 259 258 258 258 258 258 258 259 259 259 259 260 262 263 264 265 266 266 267 266 264 263 261 260 260 259 258 257 257 256 254 253 253 254 254 254 253 252 254 257 256 250 240 236 236 233 232 234 237 238 238 238 237 235 235 237 238 238 238 237 237 237 238 238 239 240 241
270 273 274 274 275 276 275 275 273 270 267 266 266 266 265 264 263 262 261 260 259 258 257 257 258 258 259 260 261 262 264 265 266 266 266 267 267 266 265 263 260 259 258 258 257 256 255 256 254 252 252 252 253 253 253 253 255 258 260 257 247 240 241 239 236 235 236 237 238 241 243 239 235 235 236 238 238 238 238 237 239 239 240 241 241
271 274 275 275 277 279 279 279 277 272 269 268 267 266 265 265 263 261 260 259 258 257 256 256 257 258 261 263 264 265 266 267 268 268 268 268 268 267 266 263 260 258 257 257 257 256 255 255 254 252 251 251 251 250 253 256 259 259 261 264 261 252 245 239 238 240 240 238 234 237 242 241 237 235 234 237 239 239 240 239 240 241 241 242 243
270 273 276 276 278 280 282 283 280 274 270 269 269 267 266 264 261 258 257 256 256 257 257 258 259 260 263 265 266 267 267 268 269 270 269 268 268 268 266 264 262 259 257 256 257 257 256 256 255 252 250 251 251 250 252 255 259 260 259 261 263 258 250 238 233 237 244 243 232 230 236 237 237 236 234 235 238 240 241 242 242 243 243 243 244
270 273 276 277 278 281 284 285 281 276 274 273 272 270 267 264 260 257 255 254 255 257 259 261 262 263 265 266 266 267 267 268 269 270 270 269 268 267 265 264 262 260 258 257 256 256 256 256 256 254 252 251 252 251 251 253 256 257 257 257 257 256 255 248 236 233 238 240 234 231 233 231 233 237 235 235 237 239 241 242 243 244 245 246 246
270 272 273 275 277 280 281 280 278 277 276 276 275 273 269 266 263 259 257 255 255 257 259 261 262 263 264 265 265 266 267 268 269 270 270 269 268 266 264 262 260 259 258 257 257 256 255 256 256 255 253 252 254 254 253 253 253 254 255 255 254 255 258 257 251 245 239 236 234 235 235 231 232 237 237 236 238 240 242 243 244 245 247 248 249
267 268 269 272 275 277 276 275 274 276 277 277 276 273 271 269 266 262 259 258 258 258 259 261 262 262 263 263 264 265 266 267 269 270 270 269 267 265 263 261 259 258 258 257 257 256 255 254 255 254 252 251 252 253 253 253 253 253 253 254 254 254 256 257 257 257 253 246 241 237 236 233 232 236 238 238 239 241 243 244 246 247 246 248 250
264 265 266 269 272 273 272 273 274 277 278 277 276 273 271 269 266 264 262 260 259 260 261 262 263 263 262 263 263 263 264 266 267 269 269 269 268 265 261 259 258 257 257 257 257 257 256 254 254 254 253 251 251 252 253 253 253 253 253 253 254 254 254 255 256 258 258 256 254 249 243 238 232 232 236 238 238 240 243 244 245 247 247 248 250
Height
5861 5861 5861 5861 5861 5861 5861 5861 5861 5861 5861 5861 5861 5861 5860 5860 5860 5860 5859 5859 5858 5858 5858 5857 5857 5857 5856 5855 5855 5854 5854 5854 5853 5853 5853 5853 5853 5853 5853 5853 5853 5853 5854 5854 5854 5854 5855 5855 5855 5855 5856 5856 5856 5856 5857 5857 5857 5857 5858 5859 5859 5860 5861 5862 5863 5864 5865 5865 5866 5866 5866 5866 5867 5867 5867 5868 5868 5869 5869 5869 5869 5869 5869 5869 5869
5858 5859 5859 5859 5859 5859 5859 5859 5860 5860 5860 5860 5860 5859 5859 5859 5859 5858 5858 5858 5857 5857 5856 5856 5856 5855 5855 5854 5854 5853 5853 5853 5852 5852 5852 5852 5852 5852 5852 5852 5852 5853 5853 5853 5853 5853 5854 5854 5854 5855 5855 5855 5855 5856 5856 5856 5857 5857 5857 5858 5859 5860 5861 5862 5863 5864 5865 5865 5866 5866 5866 5866 5867 5867 5867 5868 5869 5869 5869 5869 5869 5869 5869 5870 5869
5856 5857 5857 5858 5858 5858 5858 5858 5858 5858 5858 5858 5858 5858 5858 5858 5857 5857 5857 5856 5856 5855 5855 5855 5854 5854 5853 5853 5853 5852 5852 5851 5851 5851 5851 5851 5851 5851 5851 5851 5851 5852 5852 5852 5852 5852 5853 5853 5854 5854 5854 5854 5855 5855 5855 5856 5856 5856 5857 5858 5858 5859 5861 5862 5863 5864 5865 5865 5866 5866 5866 5866 5867 5867 5867 5868 5869 5869 5869 5869 5870 5870 5870 5870 5870
5854 5855 5855 5856 5856 5856 5856 5856 5856 5857 5857 5857 5857 5857 5856 5856 5856 5856 5855 5855 5854 5854 5854 5853 5853 5852 5852 5852 5851 5851 5850 5850 5850 5849 5850 5850 5850 5850 5850 5850 5850 5850 5851 5851 5851 5851 5852 5852 5853 5853 5854 5854 5854 5855 5855 5855 5855 5856 5856 5857 5858 5859 5860 5861 5862 5864 5865 5865 5866 5866 5866 5866 5866 5867 5868 5868 5869 5869 5869 5869 5870 5870 5871 5871 5871
5853 5853 5854 5854 5855 5855 5855 5855 5855 5855 5855 5855 5855 5855 5855 5854 5854 5854 5854 5853 5853 5853 5852 5852 5851 5851 5850 5850 5850 5850 5849 5849 5849 5848 5849 5849 5849 5849 5849 5849 5849 5849 5849 5850 5850 5850 5851 5851 5852 5852 5853 5853 5853 5854 5854 5855 5855 5855 5856 5857 5858 5859 5860 5861 5862 5863 5864 5865 5865 5866 5866 5866 5866 5867 5868 5868 5869 5869 5869 5870 5870 5871 5871 5871 5871
5851 5851 5852 5853 5853 5853 5854 5854 5854 5853 5853 5853 5853 5853 5853 5853 5853 5852 5852 5852 5852 5851 5851 5850 5850 5849 5849 5849 5849 5848 5848 5847 5847 5847 5847 5848 5848 5848 5848 5848 5848 5848 5848 5849 5849 5849 5850 5850 5851 5852 5852 5853 5853 5853 5854 5854 5854 5855 5855 5856 5857 5858 5859 5860 5862 5863 5864 5865 5865 5866 5866 5866 5866 5867 5868 5868 5869 5869 5870 5870 5870 5871 5871 5872 5872
5849 5849 5850 5851 5852 5852 5852 5852 5852 5852 5852 5852 5852 5851 5851 5851 5851 5851 5851 5850 5850 5849 5849 5848 5848 5848 5848 5847 5847 5847 5846 5846 5846 5846 5846 5846 5847 5847 5846 5846 5847 5847 5847 5847 5848 5848 5849 5849 5850 5851 5851 5852 5852 5852 5853 5854 5854 5854 5855 5856 5857 5858 5859 5860 5861 5862 5864 5864 5865 5866 5866 5867 5867 5867 5868 5868 5869 5869 5870 5870 5871 5871 5872 5872 5872
5847 5848 5849 5849 5850 5850 5851 5850 5850 5850 5850 5850 5850 5850 5850 5849 5849 5849 5849 5848 5848 5848 5847 5847 5846 5846 5846 5846 5845 5845 5845 5845 5845 5845 5845 5845 5845 5846 5845 5845 5846 5846 5846 5846 5847 5848 5848 5849 5849 5850 5850 5851 5851 5852 5853 5853 5854 5854 5854 5855 5856 5857 5858 5859 5860 5862 5863 5864 5865 5865 5866 5867 5867 5867 5868 5868 5869 5869 5870 5870 5871 5871 5872 5872 5872
5846 5846 5847 5847 5848 5848 5849 5849 5848 5848 5848 5848 5848 5848 5848 5848 5847 5847 5847 5846 5846 5846 5846 5845 5845 5844 5844 5844 5844 5844 5844 5844 5844 5844 5844 5844 5844 5844 5844 5844 5844 5845 5845 5845 5846 5846 5847 5848 5848 5849 5849 5850 5850 5851 5852 5853 5853 5853 5853 5854 5855 5856 5857 5858 5859 5861 5862 5863 5864 5865 5866 5866 5867 5867 5868 5868 5869 5869 5870 5870 5871 5871 5871 5872 5872
5845 5845 5845 5846 5846 5846 5847 5847 5846 5846 5846 5846 5846 5846 5846 5846 5846 5845 5845 5845 5844 5844 5844 5843 5843 5843 5843 5842 5842 5842 5842 5842 5842 5843 5843 5843 5843 5843 5843 5843 5843 5843 5844 5844 5845 5845 5846 5846 5847 5848 5848 5849 5849 5850 5851 5852 5852 5852 5852 5853 5854 5855 5856 5857 5859 5860 5862 5863 5864 5865 5865 5866 5867 5867 5867 5868 5869 5869 5870 5870 5870 5871 5871 5871 5872
5843 5843 5844 5844 5844 5844 5844 5844 5844 5844 5844 5843 5843 5844 5844 5844 5844 5843 5843 5843 5842 5842 5842 5842 5841 5841 5841 5841 5841 5841 5841 5841 5841 5841 5842 5842 5842 5842 5842 5842 5842 5842 5842 5843 5843 5844 5844 5845 5846 5846 5847 5847 5848 5849 5850 5851 5851 5851 5851 5852 5853 5854 5856 5857 5858 5859 5861 5862 5864 5864 5865 5866 5866 5867 5867 5868 5868 5869 5870 5870 5870 5870 5871 5871 5871
5841 5841 5842 5842 5842 5842 5842 5842 5842 5842 5842 5841 5841 5841 5841 5842 5841 5842 5842 5841 5841 5840 5840 5840 5840 5840 5840 5839 5839 5839 5839 5839 5840 5840 5840 5840 5840 5840 5840 5841 5841 5841 5841 5841 5842 5843 5843 5844 5845 5845 5845 5846 5847 5848 5849 5850 5850 5850 5850 5851 5852 5853 5855 5856 5857 5858 5860 5861 5863 5864 5865 5865 5866 5866 5867 5867 5868 5869 5869 5870 5870 5870 5870 5871 5871
5839 5840 5840 5840 5840 5840 5839 5839 5839 5840 5840 5839 5839 5839 5839 5839 5840 5840 5840 5839 5839 5839 5839 5838 5838 5838 5838 5837 5837 5838 5838 5838 5838 5839 5839 5839 5839 5839 5839 5839 5839 5839 5839 5840 5840 5841 5841 5842 5843 5844 5844 5845 5845 5846 5847 5848 5849 5850 5850 5850 5851 5852 5853 5855 5856 5857 5859 5860 5862 5863 5864 5865 5865 5866 5867 5867 5868 5868 5869 5869 5869 5870 5870 5871 5871
5837 5837 5838 5838 5838 5838 5837 5837 5837 5837 5837 5837 5837 5837 5837 5837 5837 5837 5837 5837 5837 5837 5836 5836 5836 5836 5836 5836 5836 5836 5836 5836 5836 5837 5837 5837 5837 5837 5837 5837 5837 5837 5837 5838 5839 5839 5840 5840 5841 5842 5842 5843 5844 5845 5846 5847 5848 5848 5849 5849 5850 5851 5852 5853 5855 5856 5857 5859 5860 5862 5863 5864 5865 5865 5866 5866 5867 5867 5868 5869 5869 5869 5870 5870 5871
5835 5835 5835 5836 5836 5835 5835 5835 5835 5835 5835 5835 5834 5834 5834 5834 5835 5835 5835 5835 5835 5835 5834 5835 5834 5834 5834 5834 5834 5834 5834 5834 5834 5835 5835 5835 5835 5835 5835 5835 5835 5835 5836 5836 5837 5837 5838 5838 5839 5840 5841 5841 5842 5843 5844 5845 5846 5847 5847 5848 5848 5849 5850 5852 5853 5855 5856 5858 5859 5860 5862 5863 5864 5864 5865 5865 5866 5866 5867 5868 5868 5869 5869 5870 5870
5832 5833 5833 5833 5833 5833 5833 5833 5832 5832 5832 5832 5832 5832 5832 5832 5833 5833 5833 5832 5832 5832 5833 5833 5832 5832 5832 5832 5832 5832 5832 5833 5833 5833 5833 5833 5833 5833 5833 5832 5833 5834 5834 5834 5834 5835 5836 5837 5838 5838 5839 5840 5840 5841 5842 5843 5845 5846 5846 5846 5847 5848 5849 5850 5852 5854 5855 5857 5858 5859 5860 5862 5863 5863 5864 5865 5865 5866 5867 5868 5868 5868 5869 5869 5870
5830 5831 5831 5831 5831 5831 5831 5830 5830 5830 5830 5830 5829 5829 5830 5831 5831 5830 5830 5830 5830 5831 5831 5831 5831 5830 5831 5831 5830 5830 5830 5830 5831 5831 5831 5831 5831 5831 5831 5830 5831 5832 5832 5832 5832 5833 5834 5835 5836 5836 5837 5838 5839 5839 5840 5841 5843 5844 5845 5845 5846 5847 5848 5849 5850 5852 5854 5856 5857 5858 5859 5861 5862 5863 5864 5864 5865 5866 5866 5867 5867 5868 5868 5869 5869
5829 5829 5829 5829 5829 5829 5829 5829 5828 5828 5828 5828 5826 5826 5828 5828 5828 5827 5828 5828 5828 5829 5829 5829 5829 5829 5829 5829 5829 5829 5829 5829 5828 5828 5828 5828 5829 5829 5829 5829 5829 5830 5830 5831 5831 5831 5832 5833 5834 5834 5835 5836 5837 5838 5839 5840 5841 5842 5843 5844 5845 5845 5846 5848 5849 5850 5852 5854 5855 5857 5858 5860 5861 5862 5863 5863 5864 5865 5865 5866 5866 5867 5868 5868 5869
5827 5827 5827 5827 5827 5827 5827 5827 5826 5826 5826 5826 5823 5823 5825 5825 5825 5825 5826 5826 5826 5827 5827 5827 5827 5827 5827 5827 5827 5827 5827 5827 5827 5826 5826 5826 5826 5827 5827 5828 5828 5828 5829 5829 5829 5829 5830 5831 5832 5833 5833 5834 5835 5836 5837 5838 5839 5841 5842 5843 5843 5844 5845 5846 5847 5849 5850 5852 5854 5856 5857 5858 5859 5860 5861 5862 5863 5864 5864 5865 5866 5866 5867 5867 5868
5825 5825 5825 5825 5825 5825 5825 5825 5824 5824 5824 5824 5822 5822 5822 5822 5822 5823 5824 5823 5823 5824 5825 5825 5825 5825 5825 5825 5825 5825 5825 5825 5824 5824 5823 5823 5824 5825 5826 5826 5826 5827 5827 5828 5828 5828 5828 5829 5830 5831 5831 5832 5833 5834 5835 5837 5838 5839 5840 5841 5842 5843 5844 5844 5846 5847 5849 5850 5852 5854 5856 5857 5858 5859 5860 5861 5862 5863 5864 5864 5865 5866 5866 5867 5867
5822 5823 5823 5823 5823 5822 5822 5822 5822 5822 5822 5822 5820 5820 5820 5819 5820 5821 5821 5821 5820 5822 5823 5823 5823 5823 5823 5823 5823 5823 5823 5823 5822 5822 5821 5822 5822 5823 5824 5824 5825 5825 5826 5826 5827 5827 5827 5827 5828 5829 5829 5830 5831 5832 5833 5835 5836 5837 5838 5840 5841 5842 5842 5843 5844 5846 5847 5849 5850 5852 5854 5855 5857 5858 5859 5860 5861 5862 5863 5863 5864 5865 5866 5866 5867
5820 5821 5821 5821 5821 5820 5820 5820 5820 5820 5820 5820 5818 5818 5818 5817 5818 5818 5819 5818 5819 5820 5821 5821 5821 5821 5822 5821 5821 5821 5821 5821 5820 5820 5819 5820 5820 5821 5821 5822 5823 5824 5824 5825 5825 5826 5826 5826 5826 5827 5828 5828 5829 5830 5831 5833 5834 5835 5837 5838 5839 5840 5841 5841 5842 5844 5845 5847 5848 5850 5852 5853 5855 5857 5858 5859 5860 5861 5862 5863 5863 5864 5865 5865 5866
5818 5819 5819 5819 5819 5818 5818 5818 5817 5818 5818 5817 5817 5816 5816 5816 5816 5816 5816 5816 5817 5818 5818 5818 5818 5819 5819 5819 5819 5819 5819 5819 5818 5817 5817 5818 5818 5819 5820 5820 5821 5822 5822 5823 5824 5825 5825 5825 5825 5825 5826 5826 5827 5828 5829 5830 5832 5834 5835 5836 5837 5838 5839 5840 5841 5842 5843 5845 5846 5848 5850 5851 5853 5854 5856 5857 5858 5860 5861 5861 5862 5863 5864 5864 5865
5816 5816 5817 5817 5816 5816 5815 5815 5815 5815 5815 5815 5815 5814 5813 5814 5814 5814 5814 5814 5815 5815 5815 5816 5816 5816 5817 5817 5817 5818 5818 5818 5816 5816 5816 5816 5817 5818 5818 5818 5819 5819 5820 5821 5822 5823 5824 5823 5823 5823 5823 5824 5825 5825 5827 5828 5830 5832 5833 5834 5835 5836 5837 5838 5839 5840 5841 5843 5844 5846 5848 5849 5851 5852 5854 5855 5857 5858 5859 5860 5861 5862 5863 5863 5864
5814 5814 5814 5814 5814 5813 5813 5812 5811 5812 5812 5812 5812 5812 5811 5811 5811 5811 5812 5812 5812 5813 5813 5813 5813 5814 5815 5815 5815 5815 5816 5816 5815 5815 5815 5815 5816 5816 5816 5816 5817 5817 5818 5819 5820 5821 5822 5822 5822 5821 5822 5822 5823 5823 5825 5826 5827 5829 5831 5832 5833 5835 5836 5837 5837 5838 5840 5841 5843 5844 5846 5847 5848 5850 5851 5853 5854 5856 5857 5858 5859 5860 5861 5862 5862
5812 5812 5812 5811 5811 5811 5810 5809 5808 5809 5809 5809 5809 5809 5809 5809 5809 5809 5809 5809 5810 5810 5810 5810 5811 5812 5813 5813 5813 5813 5813 5813 5813 5813 5814 5814 5814 5814 5814 5814 5815 5815 5815 5817 5818 5818 5819 5820 5820 5819 5820 5820 5821 5821 5822 5823 5825 5827 5829 5830 5831 5833 5834 5835 5836 5837 5838 5839 5841 5842 5844 5845 5846 5848 5849 5851 5852 5853 5855 5856 5857 5858 5859 5860 5861
5809 5809 5809 5809 5808 5808 5807 5806 5806 5806 5806 5806 5806 5806 5806 5806 5806 5807 5807 5807 5808 5808 5808 5808 5809 5810 5810 5811 5810 5810 5810 5811 5811 5812 5812 5812 5812 5812 5813 5813 5813 5813 5814 5814 5815 5816 5817 5817 5818 5817 5817 5818 5818 5818 5820 5821 5822 5824 5826 5828 5829 5831 5832 5833 5834 5835 5836 5837 5839 5840 5841 5843 5844 5846 5847 5848 5850 5851 5852 5853 5855 5856 5857 5858 5859
5806 5806 5806 5806 5805 5805 5804 5804 5803 5803 5804 5804 5804 5804 5804 5804 5804 5805 5805 5805 5806 5806 5807 5807 5807 5808 5808 5808 5807 5807 5808 5809 5810 5811 5811 5810 5811 5811 5812 5812 5812 5812 5812 5812 5813 5814 5815 5816 5816 5816 5815 5816 5816 5816 5817 5818 5820 5822 5824 5826 5827 5829 5830 5831 5832 5833 5834 5835 5837 5838 5839 5840 5842 5843 5845 5846 5848 5849 5850 5851 5852 5854 5855 5856 5857
5803 5803 5803 5803 5803 5802 5802 5801 5801 5801 5801 5801 5801 5801 5802 5802 5802 5803 5803 5803 5804 5804 5805 5805 5805 5805 5805 5805 5805 5805 5806 5807 5808 5808 5808 5809 5809 5810 5810 5810 5810 5811 5811 5811 5811 5812 5813 5814 5814 5814 5814 5814 5814 5813 5814 5816 5818 5820 5822 5823 5825 5827 5828 5829 5830 5831 5832 5834 5834 5836 5837 5838 5839 5841 5842 5844 5845 5846 5848 5849 5851 5852 5853 5854 5855
5800 5800 5800 5800 5800 5800 5799 5799 5799 5799 5799 5799 5799 5800 5800 5800 5801 5801 5801 5802 5802 5802 5803 5803 5803 5803 5803 5802 5802 5803 5803 5805 5806 5806 5806 5807 5808 5808 5809 5809 5809 5809 5809 5809 5809 5810 5811 5812 5812 5812 5812 5813 5813 5811 5812 5814 5816 5818 5819 5821 5823 5825 5826 5827 5828 5829 5830 5831 5832 5833 5835 5836 5837 5838 5840 5841 5843 5844 5846 5847 5849 5850 5851 5852 5854
5797 5797 5797 5797 5797 5797 5797 5797 5797 5797 5797 5797 5797 5798 5798 5798 5799 5799 5800 5800 5801 5801 5801 5801 5802 5801 5801 5800 5800 5800 5801 5802 5803 5804 5805 5805 5806 5807 5808 5808 5807 5808 5808 5807 5807 5808 5808 5809 5810 5810 5810 5811 5811 5810 5809 5811 5813 5816 5817 5819 5821 5822 5824 5825 5826 5827 5828 5829 5830 5831 5833 5834 5835 5836 5838 5839 5840 5842 5843 5845 5846 5848 5849 5850 5852
5794 5794 5794 5794 5794 5795 5795 5795 5795 5795 5795 5795 5795 5796 5796 5797 5797 5798 5798 5799 5799 5799 5799 5800 5800 5800 5800 5799 5798 5799 5799 5800 5801 5802 5803 5804 5805 5806 5806 5806 5806 5806 5807 5807 5806 5806 5806 5806 5807 5807 5808 5809 5809 5808 5808 5808 5810 5813 5815 5817 5818 5820 5821 5822 5823 5824 5826 5827 5828 5829 5830 5831 5832 5834 5835 5837 5838 5839 5841 5842 5844 5845 5847 5848 5849
5792 5792 5792 5792 5792 5792 5793 5793 5793 5793 5793 5793 5793 5794 5794 5795 5795 5796 5796 5797 5797 5797 5797 5798 5798 5798 5798 5797 5797 5797 5797 5797 5798 5800 5801 5802 5803 5803 5803 5803 5803 5804 5805 5805 5804 5803 5804 5804 5805 5805 5806 5807 5808 5806 5806 5806 5807 5810 5812 5814 5815 5816 5818 5820 5821 5822 5823 5825 5826 5827 5828 5829 5830 5832 5833 5835 5836 5837 5838 5840 5841 5843 5844 5845 5846
5790 5790 5789 5789 5790 5790 5790 5790 5791 5791 5791 5791 5791 5792 5792 5793 5793 5794 5794 5795 5795 5795 5795 5795 5796 5795 5796 5795 5795 5795 5795 5796 5796 5797 5798 5800 5800 5800 5801 5801 5801 5801 5802 5803 5802 5802 5802 5802 5803 5803 5804 5805 5806 5805 5805 5805 5806 5807 5809 5811 5813 5813 5815 5817 5818 5820 5821 5823 5824 5825 5826 5827 5828 5830 5831 5832 5833 5835 5836 5837 5838 5840 5841 5843 5844
5788 5788 5787 5787 5787 5788 5788 5788 5788 5788 5789 5789 5789 5790 5790 5790 5791 5791 5792 5792 5792 5792 5793 5793 5793 5793 5793 5793 5793 5792 5793 5794 5794 5794 5796 5797 5797 5798 5798 5799 5799 5799 5799 5800 5800 5800 5800 5799 5800 5801 5801 5802 5803 5804 5803 5804 5805 5805 5806 5808 5810 5811 5813 5814 5816 5818 5819 5820 5821 5823 5824 5825 5826 5827 5829 5830 5831 5832 5833 5834 5836 5837 5839 5840 5841
5786 5785 5785 5785 5785 5785 5786 5786 5786 5786 5787 5787 5787 5788 5788 5788 5788 5789 5790 5790 5790 5790 5790 5791 5791 5791 5791 5791 5791 5790 5790 5792 5792 5792 5793 5794 5795 5795 5796 5796 5796 5796 5796 5797 5798 5797 5797 5797 5797 5798 5798 5799 5800 5801 5802 5802 5803 5803 5804 5804 5806 5808 5810 5812 5813 5814 5816 5817 5819 5820 5821 5823 5824 5825 5826 5827 5828 5830 5831 5832 5833 5834 5836 5837 5838
5783 5783 5783 5782 5782 5783 5784 5784 5784 5784 5785 5785 5785 5785 5786 5786 5786 5787 5787 5787 5787 5788 5788 5788 5788 5789 5789 5789 5789 5788 5788 5788 5789 5790 5791 5791 5792 5792 5793 5794 5794 5794 5794 5794 5795 5795 5795 5795 5795 5795 5796 5796 5797 5799 5799 5800 5800 5801 5802 5802 5803 5805 5807 5808 5810 5811 5812 5814 5816 5817 5819 5820 5821 5823 5824 5825 5826 5827 5828 5829 5831 5832 5833 5834 5835
5780 5780 5780 5779 5780 5781 5782 5782 5782 5783 5783 5782 5783 5783 5783 5784 5784 5784 5785 5785 5785 5785 5785 5785 5786 5786 5786 5786 5786 5786 5785 5786 5786 5787 5788 5788 5789 5790 5791 5791 5791 5792 5792 5792 5792 5792 5792 5792 5793 5793 5793 5794 5794 5796 5797 5797 5798 5799 5799 5800 5801 5802 5803 5805 5806 5808 5809 5811 5813 5814 5816 5817 5819 5820 5821 5822 5823 5825 5826 5827 5828 5830 5831 5832 5833
5778 5777 5777 5777 5777 5778 5779 5780 5780 5780 5780 5780 5780 5780 5781 5781 5781 5781 5782 5782 5782 5782 5782 5782 5782 5783 5783 5783 5784 5783 5783 5783 5784 5784 5785 5786 5786 5787 5788 5788 5788 5789 5789 5789 5789 5789 5790 5790 5790 5790 5791 5791 5792 5793 5793 5794 5795 5796 5796 5797 5798 5799 5800 5801 5803 5805 5807 5808 5810 5812 5813 5814 5816 5817 5818 5819 5821 5822 5824 5825 5826 5827 5829 5830 5831
5775 5775 5774 5774 5775 5776 5777 5778 5778 5778 5778 5778 5778 5778 5778 5778 5778 5778 5779 5779 5779 5779 5779 5779 5779 5779 5780 5780 5781 5781 5781 5780 5780 5781 5782 5783 5783 5784 5785 5785 5785 5786 5786 5786 5787 5787 5787 5788 5788 5788 5789 5789 5789 5790 5790 5791 5792 5793 5794 5795 5795 5796 5797 5798 5800 5802 5803 5805 5806 5808 5809 5810 5812 5814 5815 5816 5818 5820 5821 5823 5824 5825 5826 5827 5828
5773 5772 5772 5771 5772 5773 5774 5775 5775 5775 5775 5775 5775 5775 5775 5775 5775 5776 5776 5776 5776 5775 5775 5776 5776 5776 5776 5777 5777 5778 5778 5777 5777 5778 5779 5780 5780 5781 5782 5782 5782 5783 5783 5784 5784 5784 5784 5785 5785 5786 5787 5787 5786 5787 5787 5788 5789 5790 5791 5792 5793 5793 5793 5795 5797 5798 5799 5801 5803 5805 5805 5807 5809 5810 5812 5813 5816 5818 5819 5820 5822 5823 5824 5825 5826
5770 5770 5769 5768 5769 5771 5772 5772 5773 5772 5773 5772 5772 5772 5772 5773 5773 5772 5773 5773 5772 5772 5772 5772 5773 5773 5773 5773 5774 5774 5774 5774 5775 5775 5775 5776 5777 5778 5779 5779 5780 5780 5780 5781 5781 5781 5781 5782 5783 5783 5783 5784 5783 5784 5785 5785 5786 5787 5788 5789 5789 5789 5790 5792 5793 5794 5795 5797 5799 5801 5802 5803 5805 5806 5808 5811 5813 5815 5816 5818 5819 5820 5821 5823 5824
5768 5767 5766 5765 5766 5768 5768 5770 5770 5770 5770 5770 5769 5769 5769 5770 5769 5769 5770 5769 5769 5769 5769 5769 5769 5770 5770 5770 5771 5771 5771 5771 5771 5772 5772 5772 5774 5775 5775 5776 5777 5777 5777 5778 5778 5778 5779 5779 5780 5780 5780 5781 5781 5782 5782 5783 5783 5784 5785 5785 5786 5786 5786 5788 5789 5790 5791 5793 5795 5796 5797 5799 5801 5803 5805 5807 5809 5811 5813 5815 5816 5817 5818 5820 5821
5765 5765 5763 5762 5763 5765 5765 5766 5767 5767 5767 5767 5767 5767 5767 5767 5766 5766 5766 5766 5766 5766 5766 5766 5767 5767 5767 5767 5768 5768 5768 5768 5768 5769 5769 5769 5770 5771 5772 5773 5774 5774 5774 5774 5775 5775 5776 5776 5777 5777 5778 5778 5778 5779 5779 5780 5781 5782 5782 5782 5783 5783 5783 5783 5784 5785 5787 5789 5791 5792 5793 5795 5797 5799 5801 5802 5804 5807 5809 5810 5812 5813 5815 5816 5817
5763 5761 5760 5760 5760 5762 5762 5763 5764 5763 5764 5764 5764 5764 5764 5764 5764 5764 5763 5763 5763 5763 5763 5763 5764 5764 5764 5765 5765 5765 5765 5765 5766 5766 5766 5766 5767 5768 5769 5770 5771 5771 5771 5771 5771 5772 5772 5773 5774 5774 5775 5776 5776 5776 5776 5777 5778 5779 5780 5780 5780 5780 5780 5780 5781 5782 5783 5785 5786 5789 5790 5791 5792 5794 5796 5798 5800 5802 5804 5805 5807 5809 5811 5812 5813
5760 5758 5757 5757 5758 5758 5759 5760 5761 5760 5760 5760 5761 5761 5761 5761 5761 5761 5760 5760 5760 5760 5760 5760 5761 5761 5761 5762 5762 5762 5763 5763 5763 5763 5763 5764 5764 5765 5766 5767 5767 5768 5768 5768 5768 5769 5769 5770 5770 5771 5772 5773 5773 5773 5773 5774 5775 5777 5777 5778 5778 5778 5778 5778 5778 5779 5780 5780 5783 5786 5786 5786 5788 5790 5792 5794 5796 5798 5800 5801 5803 5805 5807 5808 5809
5757 5756 5754 5754 5755 5755 5756 5757 5757 5757 5757 5757 5757 5757 5758 5758 5758 5758 5758 5758 5757 5757 5757 5757 5758 5758 5758 5759 5759 5760 5760 5760 5760 5760 5761 5761 5761 5762 5762 5763 5764 5765 5765 5765 5766 5766 5766 5766 5767 5768 5769 5769 5769 5770 5771 5771 5772 5774 5774 5775 5776 5776 5776 5776 5776 5777 5777 5777 5779 5782 5781 5782 5784 5785 5787 5790 5791 5794 5796 5798 5799 5801 5802 5803 5805
5754 5753 5752 5751 5752 5752 5753 5753 5753 5753 5754 5754 5754 5754 5755 5755 5755 5755 5755 5755 5755 5755 5755 5755 5755 5755 5755 5756 5756 5757 5757 5757 5758 5758 5758 5758 5759 5759 5760 5760 5761 5761 5762 5762 5763 5763 5763 5763 5764 5765 5765 5766 5766 5767 5767 5768 5769 5770 5770 5771 5773 5773 5773 5774 5774 5775 5775 5775 5776 5777 5777 5779 5781 5781 5783 5785 5787 5790 5792 5794 5795 5796 5798 5799 5800
5751 5751 5749 5748 5749 5750 5750 5750 5750 5750 5750 5751 5751 5751 5752 5752 5752 5752 5752 5753 5753 5753 5752 5752 5753 5753 5753 5753 5753 5754 5754 5754 5755 5755 5755 5756 5756 5756 5757 5757 5758 5758 5759 5759 5760 5760 5760 5760 5761 5761 5762 5762 5763 5763 5764 5765 5766 5766 5767 5768 5769 5770 5770 5771 5771 5772 5773 5773 5774 5774 5774 5777 5778 5779 5780 5782 5784 5786 5788 5789 5791 5792 5794 5795 5796
5748 5748 5746 5745 5746 5747 5747 5747 5747 5747 5748 5748 5748 5749 5749 5749 5749 5749 5750 5750 5750 5750 5750 5750 5750 5750 5750 5750 5751 5751 5751 5751 5752 5752 5753 5753 5753 5754 5754 5754 5755 5755 5756 5756 5756 5757 5757 5757 5758 5758 5759 5759 5760 5760 5761 5761 5762 5763 5763 5764 5765 5766 5767 5768 5768 5768 5769 5770 5771 5772 5772 5774 5776 5776 5777 5779 5781 5783 5784 5785 5787 5788 5790 5790 5791
5744 5744 5743 5742 5743 5743 5744 5744 5744 5745 5745 5745 5746 5746 5747 5747 5747 5747 5747 5747 5747 5747 5747 5747 5747 5748 5748 5748 5748 5748 5748 5749 5749 5749 5750 5750 5751 5751 5752 5752 5752 5752 5753 5753 5753 5754 5754 5754 5755 5755 5756 5756 5757 5757 5758 5758 5759 5759 5760 5761 5761 5762 5763 5764 5765 5766 5766 5767 5768 5769 5770 5771 5772 5772 5773 5775 5777 5779 5779 5781 5782 5783 5785 5786 5786